Regional Weather Roundup
Issued by NWS

Home | Current Version | Previous Version | Graphics & Text | Print | Product List | Glossary On
Versions: 1 2 3 4 5 6 7 8 9 10 11 12 13 14 15 16 17 18 19 20 21 22 23 24 25 26 27 28 29 30 31 32 33 34 35 36 37 38 39 40 41 42 43 44 45 46 47 48 49 50
000
ASUS45 KSLC 162010
RWRUT

UTAH REGIONAL WEATHER ROUNDUP
NATIONAL WEATHER SERVICE SALT LAKE CITY UT
200 PM MDT TUE SEP 16 2014

UTZ001>011-023>025-162100-

NORTHERN UTAH

CITY           SKY/WX    TMP DP  RH WIND       PRES   REMARKS
HILL AFB       MOSUNNY   85  46  26 NE5       30.10F
LOGAN          SUNNY     82  49  31 W6        30.07F
OGDEN          SUNNY     87  42  20 VRB6      30.07F
PROVO AIRPORT  MOSUNNY   81  52  36 VRB5      30.11F
SALT LAKE CITY MOSUNNY   90  36  14 S12       30.04F
VERNAL         SUNNY     79  45  29 CALM      30.17F
WENDOVER       SUNNY     82  39  21 E8        30.05F
HEBER CITY     MOSUNNY   82  43  24 W3        30.16F
WEST JORDAN    SUNNY     90  37  15 SE15      30.09F

$$

UTZ012>022-026-027-162100-

SOUTHERN UTAH

CITY           SKY/WX    TMP DP  RH WIND       PRES   REMARKS
BRYCE CANYON   MOSUNNY   75  44  33 SE8       30.34F
CEDAR CITY     MOSUNNY   84  32  15 VRB6      30.15F
MILFORD        SUNNY     89  35  14 S8        30.10F
MOAB/CYNLANDS  SUNNY     86  45  23 VRB3      30.09F
PRICE          MOSUNNY   82  37  20 S8        30.21F
ST GEORGE      PTCLDY    91  48  22 W3        29.99F
KANAB            N/A     88  43  20 NE3       30.15F

$$

REGIONAL REPORTS     COLORADO/ARIZONA

CITY           SKY/WX    TMP DP  RH WIND       PRES   REMARKS
CRAIG, CO      MOSUNNY   80  37  21 CALM      30.24F
GRAND JUNCTION SUNNY     84  42  22 SW5       30.14F
RIFLE          MOSUNNY   79  41  25 NW5       30.19F
MONTROSE       MOSUNNY   85  38  18 N5        30.22F
CORTEZ         SUNNY     81  49  32 SW9       30.22F
PAGE, AZ       SUNNY     88  51  28 N6        30.10F
GRAND CANYON   SUNNY     74  47  38 E12       30.26F
KINGMAN        SUNNY     89  63  41 W8        30.03F HX  90
FLAGSTAFF      PTSUNNY   71  53  52 VRB3      30.28F

$$

REGIONAL REPORTS    NEVADA/IDAHO/WYOMING

CITY           SKY/WX    TMP DP  RH WIND       PRES   REMARKS
LAS VEGAS, NV  MOSUNNY   98  56  24 S5        29.86F HX  96
ELY            MOSUNNY   82  34  17 MISG      30.19F
ELKO           SUNNY     90  34  13 VRB5      30.07F
POCATELLO, ID  MOSUNNY   88  37  16 E6        30.05F
BURLEY         SUNNY     88  41  19 NE5       30.00F
EVANSTON, WY   MOSUNNY   76  38  25 W13G21    30.27F
ROCK SPRINGS   SUNNY     81  30  15 W17G24    30.24F

$$


USA.gov is the U.S. government's official web portal to all federal, state and local government web resources and services.